QPF
0.00 0.00 0.00 0.00 0.00 0.00 0.00 0.00 0.00 0.00 0.00 0.00 0.00 0.00 0.00 0.00 0.00 0.01 0.00 0.00 0.00 0.00
0.00 0.00 0.00 0.00 0.00 0.00 0.00 0.00 0.00 0.00 0.00 0.00 0.00 0.00 0.00 0.00 0.00 0.00 0.00 0.00 0.00 0.00
0.00 0.00 0.00 0.00 0.00 0.00 0.00 0.00 0.00 0.00 0.00 0.00 0.00 0.00 0.00 0.00 0.00 0.00 0.00 0.00 0.00 0.00
0.00 0.00 0.00 0.00 0.00 0.00 0.00 0.00 0.00 0.00 0.00 0.00 0.00 0.00 0.00 0.00 0.00 0.00 0.00 0.00 0.00 0.00
0.00 0.00 0.00 0.00 0.00 0.00 0.00 0.00 0.00 0.00 0.00 0.00 0.00 0.00 0.00 0.00 0.00 0.00 0.00 0.00 0.00 0.00
0.00 0.00 0.00 0.00 0.00 0.00 0.00 0.00 0.00 0.00 0.00 0.00 0.00 0.00 0.00 0.00 0.00 0.00 0.00 0.00 0.00 0.00
0.00 0.00 0.00 0.00 0.00 0.00 0.00 0.00 0.00 0.00 0.00 0.00 0.00 0.00 0.00 0.00 0.00 0.00 0.00 0.00 0.00 0.00
0.00 0.00 0.00 0.00 0.00 0.00 0.00 0.00 0.00 0.00 0.00 0.00 0.00 0.00 0.00 0.00 0.00 0.00 0.00 0.00 0.00 0.00
0.00 0.00 0.00 0.00 0.00 0.00 0.00 0.00 0.00 0.00 0.00 0.00 0.00 0.01 0.00 0.00 0.00 0.00 0.00 0.00 0.00 0.00
0.00 0.00 0.00 0.00 0.00 0.00 0.00 0.00 0.00 0.00 0.00 0.00 0.00 0.01 0.00 0.00 0.00 0.00 0.00 0.00 0.00 0.00
0.00 0.00 0.00 0.00 0.00 0.00 0.00 0.00 0.00 0.00 0.00 0.00 0.00 0.00 0.00 0.00 0.00 0.00 0.00 0.00 0.00 0.00
0.00 0.00 0.00 0.00 0.00 0.00 0.00 0.00 0.00 0.00 0.00 0.00 0.00 0.00 0.00 0.00 0.00 0.00 0.00 0.00 0.00 0.00
0.00 0.00 0.00 0.00 0.00 0.00 0.00 0.00 0.00 0.00 0.00 0.00 0.00 0.00 0.00 0.00 0.00 0.00 0.00 0.00 0.00 0.00
0.00 0.00 0.00 0.00 0.00 0.00 0.00 0.00 0.00 0.00 0.00 0.00 0.00 0.00 0.00 0.00 0.00 0.00 0.00 0.00 0.00 0.00
MSLP
1025.01 1024.65 1024.14 1023.67 1023.14 1022.58 1022.02 1021.33 1020.49 1019.76 1019.16 1018.52 1017.86 1017.22 1016.48 1016.13 1015.53 1014.96 1014.81 1014.63 1014.42 1014.37
1024.99 1024.52 1024.12 1023.67 1023.14 1022.64 1022.04 1021.35 1020.65 1020.14 1019.64 1018.99 1018.29 1017.73 1017.12 1016.70 1016.23 1015.70 1015.31 1014.99 1014.65 1014.52
1025.00 1024.55 1024.18 1023.70 1023.28 1022.73 1022.19 1021.46 1020.92 1020.35 1019.84 1019.31 1018.71 1018.29 1017.87 1017.40 1016.90 1016.37 1016.05 1015.66 1015.16 1014.74
1024.99 1024.60 1024.26 1023.80 1023.32 1022.84 1022.25 1021.67 1021.17 1020.61 1020.08 1019.56 1018.95 1018.55 1018.14 1017.65 1017.29 1016.90 1016.49 1016.04 1015.64 1015.17
1025.09 1024.72 1024.34 1023.81 1023.28 1022.84 1022.40 1021.78 1021.35 1020.82 1020.26 1019.69 1019.17 1018.68 1018.35 1018.02 1017.53 1017.18 1016.75 1016.37 1015.91 1015.36
1025.22 1024.88 1024.41 1023.84 1023.34 1022.92 1022.57 1022.06 1021.43 1020.95 1020.44 1019.89 1019.35 1018.80 1018.37 1018.11 1017.85 1017.59 1017.24 1016.88 1016.42 1015.76
1025.32 1024.96 1024.55 1024.02 1023.54 1023.09 1022.66 1022.24 1021.63 1021.12 1020.61 1020.01 1019.49 1018.92 1018.64 1018.38 1018.14 1017.88 1017.54 1017.14 1016.70 1016.07
1025.32 1024.96 1024.58 1024.11 1023.69 1023.23 1022.81 1022.49 1022.07 1021.43 1020.83 1020.10 1019.53 1018.85 1018.69 1018.47 1018.35 1018.23 1017.89 1017.37 1016.95 1016.40
1025.17 1024.88 1024.63 1024.14 1023.71 1023.26 1022.83 1022.45 1022.08 1021.70 1021.16 1020.45 1019.60 1018.83 1018.66 1018.64 1018.44 1018.26 1018.15 1017.81 1017.14 1016.70
1025.29 1025.12 1024.62 1024.29 1023.88 1023.40 1022.95 1022.49 1022.09 1021.71 1021.35 1020.83 1019.99 1018.87 1018.66 1018.70 1018.59 1018.34 1018.10 1017.79 1017.33 1016.77
1025.29 1024.88 1024.85 1024.38 1024.00 1023.59 1023.13 1022.78 1022.42 1022.04 1021.63 1021.15 1020.41 1019.33 1018.74 1018.72 1018.64 1018.47 1018.13 1017.68 1017.23 1016.73
1025.12 1024.93 1024.99 1024.50 1024.05 1023.77 1023.42 1023.04 1022.74 1022.39 1021.87 1021.28 1020.64 1019.72 1018.94 1018.85 1018.66 1018.53 1018.28 1017.74 1017.08 1016.57
1024.94 1025.02 1024.87 1024.53 1024.00 1023.88 1023.57 1023.23 1022.96 1022.42 1022.01 1021.78 1021.08 1019.82 1018.89 1018.57 1018.51 1018.47 1018.24 1017.70 1017.21 1016.62
1024.91 1024.59 1024.35 1024.11 1023.90 1023.99 1023.66 1023.42 1023.16 1022.69 1022.28 1021.56 1020.87 1020.27 1019.35 1018.78 1018.44 1018.28 1018.11 1017.76 1017.29 1016.66
Thickness
5429 5421 5415 5407 5397 5386 5376 5368 5365 5363 5360 5357 5356 5356 5357 5356 5356 5358 5356 5356 5360 5363
5430 5423 5416 5408 5399 5389 5379 5371 5366 5362 5360 5358 5358 5357 5357 5357 5357 5359 5360 5360 5363 5364
5432 5425 5417 5410 5401 5392 5385 5377 5370 5365 5360 5358 5356 5355 5353 5353 5355 5357 5357 5359 5362 5365
5433 5427 5418 5411 5404 5396 5389 5382 5374 5369 5364 5360 5357 5354 5352 5353 5353 5353 5354 5356 5358 5362
5434 5427 5421 5415 5408 5400 5392 5386 5380 5375 5369 5365 5361 5357 5353 5351 5352 5352 5353 5354 5356 5360
5435 5429 5424 5419 5413 5405 5396 5391 5386 5380 5375 5370 5365 5362 5358 5354 5352 5350 5349 5348 5350 5354
5438 5432 5426 5421 5415 5409 5403 5396 5392 5386 5381 5377 5372 5368 5361 5356 5352 5350 5348 5347 5347 5349
5441 5435 5430 5424 5419 5413 5407 5401 5395 5390 5386 5382 5379 5376 5367 5361 5355 5350 5348 5347 5347 5348
5444 5439 5433 5429 5424 5418 5413 5407 5402 5396 5391 5388 5386 5384 5376 5367 5361 5356 5350 5347 5347 5346
5445 5439 5436 5431 5427 5422 5418 5413 5408 5402 5396 5391 5389 5391 5385 5375 5367 5362 5357 5352 5349 5348
5449 5446 5437 5434 5429 5425 5421 5416 5411 5405 5400 5394 5392 5394 5391 5382 5373 5367 5363 5359 5355 5352
5453 5448 5439 5437 5434 5428 5423 5419 5413 5408 5404 5400 5396 5396 5395 5386 5380 5373 5367 5364 5362 5359
5456 5448 5444 5440 5439 5432 5427 5423 5417 5413 5408 5401 5398 5402 5401 5396 5387 5379 5374 5370 5366 5364
5458 5454 5450 5447 5443 5434 5431 5425 5418 5415 5410 5408 5406 5402 5403 5399 5393 5387 5381 5375 5371 5368